Weather in Chekunda

Russia / Khabarovsk Krai     50°52′00″N   132°15′23″E
temp.,
°C
wind,
m/s
gust,
m/s
humid.,
%
clouds,
%
prec.,
mm/h
press.,
hPa
HPBL,
m
27 february, sat
sat2701:00−21ssw119316 0.0 103520
04:00−22se119526 0.0 103420
07:00−23nne119995 0.0 103320
10:00−20nne129598 0.0 1030170
13:00−15nne2284100 0.0 1025262
16:00−12nne1380100 0.0 1019355
19:00−14sw0192100 0.0 101725
22:00−13sse1296100 0.8 1016123
28 february, sun
sun2801:00−13ssw1396100 0.6 1014112
04:00−14sw2393100 0.7 101485
07:00−17sw2295100 0.0 101828
10:00−14wnw148394 0.1 1020558
13:00−13wnw466648 0.0 10231162
16:00−13wnw476371 0.1 10231371
19:00−20nw398257 0.0 1027338
22:00−23w268931 0.0 1029158
1 march, mon
mon101:00−24sw239218 0.0 103151
04:00−26wsw229213 0.0 103327
07:00−28sw22920 0.0 103528
10:00−24wsw25760 0.0 1035331
13:00−19w48610 0.0 10331275
16:00−18wnw586549 0.0 10321632
19:00−22wnw2385100 0.0 103368
22:00−26wsw229083 0.0 103519
2 march, tue
tue201:00−27sw229212 0.0 103519
04:00−29sw22916 0.0 103519
07:00−29sw22910 0.0 103620
10:00−24w12810 0.0 1035218
13:00−18wnw12655 0.0 1032770
16:00−17w246543 0.0 10301138
19:00−21s118486 0.0 103020
22:00−23s119147 0.0 103122
3 march, wed
wed301:00−23e119392 0.0 103026
04:00−23ne129996 0.1 102855
07:00−23ne1199100 0.1 102550
10:00−20ne1291100 0.3 1023211
13:00−13s1578100 0.1 1019559
16:00−12s3771100 0.3 1015962
19:00−15sse238999 0.1 101457
22:00−17s249197 0.1 1014130